Stations météo

réclame
Mon MeteoGroup
Manston, Grande-Bretagne (3797): Température de l'air & dewpoint: 17.02.2020 04:00:00 - 23.02.2020 04:00:00 (GMT)Manston, Grande-Bretagne (3797): Température de l'air -20cm & Température de l'air -100cm: 17.02.2020 04:00:00 - 23.02.2020 04:00:00 (GMT)Manston, Grande-Bretagne (3797): Vitesse du vent & gusts: 17.02.2020 04:00:00 - 23.02.2020 04:00:00 (GMT)Manston, Grande-Bretagne (3797): Direction du vent: 17.02.2020 04:00:00 - 23.02.2020 04:00:00 (GMT)Manston, Grande-Bretagne (3797): reduced air pressure: 17.02.2020 04:00:00 - 23.02.2020 04:00:00 (GMT)Manston, Grande-Bretagne (3797): visibility: 17.02.2020 04:00:00 - 23.02.2020 04:00:00 (GMT)Manston, Grande-Bretagne (3797): Ensoleillement: 17.02.2020 04:00:00 - 23.02.2020 04:00:00 (GMT)Manston, Grande-Bretagne (3797): Quantités de précipitations: 17.02.2020 04:00:00 - 23.02.2020 04:00:00 (GMT)
Date & Time tt [°C] td [°C] tt -20cm [°C] tt -100cm [°C] ff [km/h] ff [knt] fx [km/h] fx [knt] dd ppp [hPa] vv [km] sd [min] rr [mm]
23.02.2020 04:00:00 9,6 8,8 - - 34 18 48 26 SSW 1014,5 5 0 -
23.02.2020 03:00:00 9,5 6,9 - - 26 14 - - SW 1017,3 9 0 0,0
23.02.2020 02:00:00 9,4 6,8 - - 26 14 - - SW 1019,0 8 0 0,0
23.02.2020 01:00:00 9,6 6,3 - - 24 13 - - SW 1020,6 9 0 0,0
23.02.2020 00:00:00 9,5 6,1 - - 21 11 - - SW 1021,1 11 - 0,0
22.02.2020 23:00:00 9,6 5,5 - - 26 14 - - SW 1021,7 13 0 0,0
22.02.2020 22:00:00 9,9 4,7 - - 31 17 54 29 WSW 1021,5 27 0 0,0
22.02.2020 21:00:00 10,2 4,6 - - 31 17 48 26 WSW 1021,6 21 0 0,0
22.02.2020 20:00:00 10,5 4,7 - - 29 16 - - WSW 1021,4 17 0 0,0
22.02.2020 19:00:00 10,8 6,3 - - 22 12 46 25 WSW 1020,7 13 0 0,0
22.02.2020 18:00:00 11,0 5,5 - - 22 12 - - W 1020,3 18 0 0,0
22.02.2020 17:00:00 11,6 5,8 - - 26 14 54 29 W 1019,5 13 0 0,0
22.02.2020 16:00:00 12,7 5,5 - - 35 19 54 29 WSW 1018,7 19 0 0,0
22.02.2020 15:00:00 13,3 6,8 - - 41 22 61 33 WSW 1018,3 23 18 0,0
22.02.2020 14:00:00 13,6 8,1 - - 41 22 63 34 WSW 1017,7 40 30 0,0
22.02.2020 13:00:00 12,8 9,1 - - 37 20 55 30 WSW 1018,0 40 0 0,0
22.02.2020 12:00:00 12,2 8,8 - - 37 20 61 33 WSW 1017,8 17 0 0,0
22.02.2020 11:00:00 11,0 8,6 - - 39 21 55 30 SW 1017,4 11 0 0,0
22.02.2020 10:00:00 10,4 8,0 - - 41 22 65 35 SW 1016,9 9 0 0,0
22.02.2020 09:00:00 10,2 7,5 6,7 7,7 46 25 72 39 SW 1016,2 9 0 0,0
22.02.2020 08:00:00 9,8 6,9 - - 41 22 65 35 SW 1016,6 10 0 0,0
22.02.2020 07:00:00 9,6 6,4 - - 42 23 70 38 SW 1016,6 9 0 0,0
22.02.2020 06:00:00 9,4 5,6 - - 42 23 68 37 SW 1017,0 11 0 0,0
22.02.2020 05:00:00 8,6 5,1 - - 39 21 55 30 SSW 1016,7 11 0 0,0
22.02.2020 04:00:00 8,3 4,9 - - 35 19 63 34 SSW 1016,9 12 0 0,0
22.02.2020 03:00:00 8,3 4,9 - - 46 25 70 38 SSW 1016,9 13 0 0,0
22.02.2020 02:00:00 8,6 4,8 - - 50 27 76 41 SW 1017,3 13 0 0,0
22.02.2020 01:00:00 8,6 4,5 - - 48 26 70 38 SW 1018,1 16 0 0,0
22.02.2020 00:00:00 8,7 4,4 - - 46 25 70 38 SW 1019,4 15 - 0,0
21.02.2020 23:00:00 8,7 4,3 - - 50 27 76 41 SW 1019,6 16 0 0,0
21.02.2020 22:00:00 8,9 4,4 - - 46 25 70 38 SW 1020,0 15 0 0,0
21.02.2020 21:00:00 9,2 4,7 - - 48 26 70 38 SW 1020,5 15 0 0,0
21.02.2020 20:00:00 9,4 4,8 - - 48 26 65 35 SW 1021,4 15 0 0,0
21.02.2020 19:00:00 9,3 4,9 - - 42 23 65 35 SW 1021,8 14 0 0,0
21.02.2020 18:00:00 9,2 4,9 - - 41 22 59 32 SW 1022,2 13 0 0,0
21.02.2020 17:00:00 9,2 4,8 - - 37 20 54 29 SW 1022,4 12 0 0,0
21.02.2020 16:00:00 9,3 4,5 - - 41 22 54 29 SW 1022,4 17 0 0,0
21.02.2020 15:00:00 9,5 4,6 - - 37 20 54 29 SW 1022,7 19 0 0,0
21.02.2020 14:00:00 9,6 4,2 - - 41 22 54 29 SW 1023,0 16 0 0,0
21.02.2020 13:00:00 10,0 4,3 - - 34 18 50 27 SW 1023,2 15 0 0,0
21.02.2020 12:00:00 9,1 4,0 - - 34 18 48 26 SW 1024,2 20 0 0,0
21.02.2020 11:00:00 8,2 4,3 - - 28 15 - - SW 1024,7 17 0 0,0
21.02.2020 10:00:00 6,9 3,6 - - 28 15 - - SW 1024,7 15 0 0,0
21.02.2020 09:00:00 5,8 2,8 6,2 7,7 22 12 - - SW 1024,9 15 0 0,0
21.02.2020 08:00:00 5,1 2,4 - - 22 12 - - SW 1024,6 14 0 0,0
21.02.2020 07:00:00 4,4 1,7 - - 24 13 - - WSW 1024,5 15 0 0,0
21.02.2020 06:00:00 4,1 1,1 - - 22 12 - - WSW 1024,2 16 0 0,0
21.02.2020 05:00:00 3,6 0,7 - - 22 12 - - WSW 1024,0 17 0 0,0
21.02.2020 04:00:00 3,8 0,6 - - 24 13 - - WSW 1023,8 22 0 0,0
21.02.2020 03:00:00 4,1 0,5 - - 28 15 - - WSW 1023,4 22 0 0,0
21.02.2020 02:00:00 3,8 0,3 - - 29 16 - - WSW 1023,1 20 0 0,0
21.02.2020 01:00:00 3,2 -0,2 - - 26 14 - - WSW 1022,6 23 0 0,0
21.02.2020 00:00:00 3,2 -0,1 - - 26 14 70 38 WSW 1021,7 35 - 0,0
20.02.2020 23:00:00 3,3 -0,4 - - 24 13 - - WSW 1020,7 40 0 0,0
20.02.2020 22:00:00 3,5 -0,2 - - 28 15 - - W 1019,8 50 0 0,0
20.02.2020 21:00:00 3,6 0,6 - - 26 14 - - W 1018,6 45 0 0,0
20.02.2020 20:00:00 4,1 1,3 - - 24 13 - - W 1017,1 45 0 0,0
20.02.2020 19:00:00 4,9 1,5 - - 29 16 46 25 W 1015,5 45 0 0,2
20.02.2020 18:00:00 4,9 2,3 - - 31 17 48 26 W 1013,9 2,8 6 0,2
20.02.2020 17:00:00 5,9 3,4 - - 26 14 65 35 W 1010,9 45 12 0,2
20.02.2020 16:00:00 6,5 4,7 - - 42 23 68 37 W 1009,3 3,5 0 3,6
20.02.2020 15:00:00 9,5 8,3 - - 44 24 67 36 SW 1006,5 7 0 0,6
20.02.2020 14:00:00 9,2 8,0 - - 46 25 67 36 SSW 1006,4 4,3 0 0,2
20.02.2020 13:00:00 9,2 7,5 - - 41 22 74 40 SSW 1007,4 7 0 0,0
20.02.2020 12:00:00 9,8 6,9 - - 46 25 68 37 SSW 1008,6 17 0 0,0
20.02.2020 11:00:00 9,6 6,9 - - 44 24 70 38 SSW 1009,5 17 0 0,0
20.02.2020 10:00:00 9,0 7,1 - - 42 23 63 34 SSW 1010,3 15 0 0,0
20.02.2020 09:00:00 9,0 6,6 6,9 7,7 37 20 55 30 SSW 1010,9 14 0 0,0
20.02.2020 08:00:00 8,6 6,5 - - 29 16 46 25 SSW 1011,5 14 0 0,2
20.02.2020 07:00:00 8,3 6,5 - - 31 17 48 26 SW 1011,7 20 0 0,0
20.02.2020 06:00:00 8,6 6,4 - - 31 17 48 26 SSW 1012,0 16 0 0,0
20.02.2020 05:00:00 8,6 6,4 - - 29 16 - - SSW 1012,3 13 0 0,0
20.02.2020 04:00:00 8,6 6,5 - - 22 12 - - SW 1013,0 17 0 0,0
20.02.2020 03:00:00 8,5 6,7 - - 29 16 - - SSW 1013,4 12 0 0,0
20.02.2020 02:00:00 8,6 6,8 - - 28 15 - - SSW 1014,1 13 0 0,0
20.02.2020 01:00:00 8,6 6,8 - - 28 15 - - SW 1014,7 17 0 0,0
20.02.2020 00:00:00 8,6 6,5 - - 28 15 - - SSW 1015,4 21 - 0,0
19.02.2020 23:00:00 8,7 6,3 - - 22 12 - - SW 1015,8 17 0 0,0
19.02.2020 22:00:00 8,9 6,5 - - 26 14 - - SW 1016,1 14 0 0,0
19.02.2020 21:00:00 8,7 6,5 - - 28 15 - - SW 1016,6 15 0 0,0
19.02.2020 20:00:00 8,5 7,0 - - 24 13 - - SSW 1017,0 9 0 0,0
19.02.2020 19:00:00 8,0 6,9 - - 21 11 - - SSW 1017,6 10 0 0,0
19.02.2020 18:00:00 7,6 6,6 - - 21 11 - - SSW 1018,5 14 0 0,2
19.02.2020 17:00:00 6,9 5,9 - - 18 10 - - S 1019,2 6 0 0,4
19.02.2020 16:00:00 6,2 4,8 - - 16 9 - - S 1020,0 12 0 0,4
19.02.2020 15:00:00 6,3 4,3 - - 18 10 - - SW 1020,9 16 0 0,2
19.02.2020 14:00:00 7,2 3,0 - - 31 17 - - WSW 1021,4 13 0 0,0
19.02.2020 13:00:00 7,9 2,3 - - 31 17 - - WSW 1021,5 21 54 0,0
19.02.2020 12:00:00 8,1 2,5 - - 28 15 46 25 W 1021,8 20 42 0,0
19.02.2020 11:00:00 7,0 1,8 - - 26 14 - - W 1021,8 30 60 0,0
19.02.2020 10:00:00 5,6 1,6 - - 24 13 - - W 1021,9 20 60 0,0
19.02.2020 09:00:00 4,0 1,0 6,7 7,9 22 12 - - WSW 1021,6 15 60 0,0
19.02.2020 08:00:00 2,2 0,1 - - 21 11 - - WSW 1021,2 17 18 0,0
19.02.2020 07:00:00 1,8 0,0 - - 24 13 - - WSW 1020,6 24 0 0,0
19.02.2020 06:00:00 1,8 -0,2 - - 16 9 - - WSW 1019,9 29 0 -
19.02.2020 05:00:00 2,3 0,1 - - 16 9 - - W 1019,0 26 0 -
19.02.2020 04:00:00 2,7 0,3 - - 21 11 - - W 1018,5 30 0 0,0
19.02.2020 03:00:00 4,2 1,0 - - 24 13 - - W 1017,5 40 0 0,0
19.02.2020 02:00:00 4,3 1,9 - - 28 15 - - W 1016,8 29 0 0,0
19.02.2020 01:00:00 4,3 2,1 - - 24 13 - - W 1016,0 40 0 0,0
19.02.2020 00:00:00 4,6 1,7 - - 26 14 50 27 W 1015,2 50 - 0,0
18.02.2020 23:00:00 5,3 3,0 - - 37 20 54 29 W 1014,6 22 0 0,0
18.02.2020 22:00:00 7,0 3,4 - - 31 17 46 25 W 1014,4 40 0 0,0
18.02.2020 21:00:00 7,3 5,3 - - 29 16 48 26 WSW 1014,1 21 0 0,8
18.02.2020 20:00:00 8,1 5,2 - - 31 17 54 29 SW 1014,7 18 0 0,0
18.02.2020 19:00:00 8,1 5,5 - - 31 17 55 30 SW 1015,6 13 0 0,0
18.02.2020 18:00:00 7,5 5,4 - - 29 16 52 28 SW 1016,6 15 0 0,0
18.02.2020 17:00:00 7,7 5,6 - - 37 20 61 33 SW 1017,2 7 0 0,6
18.02.2020 16:00:00 9,2 4,1 - - 42 23 61 33 SW 1017,7 17 0 0,0
18.02.2020 15:00:00 9,3 4,3 - - 41 22 59 32 SW 1018,4 16 0 0,0
18.02.2020 14:00:00 9,6 3,6 - - 39 21 57 31 SW 1019,2 21 18 0,0
18.02.2020 13:00:00 10,1 3,8 - - 37 20 52 28 SW 1020,0 14 48 0,0
18.02.2020 12:00:00 8,7 1,9 - - 26 14 - - SW 1020,8 24 36 0,0
18.02.2020 11:00:00 8,2 2,8 - - 29 16 - - WSW 1021,1 23 42 0,0
18.02.2020 10:00:00 7,5 3,0 - - 34 18 - - WSW 1021,2 21 60 -
18.02.2020 09:00:00 6,2 2,8 6,7 7,7 26 14 - - WSW 1021,1 26 48 0,0
18.02.2020 08:00:00 4,7 2,0 - - 22 12 - - SW 1021,0 17 12 0,0
18.02.2020 07:00:00 4,1 1,7 - - 21 11 - - SW 1020,4 17 0 0,0
18.02.2020 06:00:00 4,3 1,5 - - 22 12 - - SW 1020,2 19 0 -
18.02.2020 05:00:00 4,3 1,4 - - 22 12 - - SW 1019,9 18 0 0,0
18.02.2020 04:00:00 4,6 1,5 - - 26 14 - - WSW 1019,8 21 0 0,0
18.02.2020 03:00:00 4,5 1,6 - - 26 14 - - WSW 1019,4 14 0 0,0
18.02.2020 02:00:00 4,5 1,4 - - 24 13 - - WSW 1019,4 14 0 0,0
18.02.2020 01:00:00 5,0 1,4 - - 34 18 - - WSW 1019,0 25 0 0,0
18.02.2020 00:00:00 5,0 1,3 - - 29 16 46 25 WSW 1018,1 28 - -
17.02.2020 23:00:00 5,5 2,0 - - 29 16 - - WSW 1017,0 29 0 0,0
17.02.2020 22:00:00 6,2 2,5 - - 29 16 - - WSW 1016,4 30 0 0,0
17.02.2020 21:00:00 6,9 3,8 - - 21 11 - - WSW 1015,3 20 0 0,0
17.02.2020 20:00:00 7,1 4,2 - - 24 13 - - SW 1014,6 22 0 0,0
17.02.2020 19:00:00 7,6 3,5 - - 28 15 - - WSW 1014,0 28 0 0,0
17.02.2020 18:00:00 7,5 4,1 - - 28 15 - - SW 1012,8 28 0 0,0
17.02.2020 17:00:00 8,0 5,5 - - 26 14 50 27 SW 1011,4 15 6 0,0
17.02.2020 16:00:00 9,2 5,7 - - 22 12 - - SW 1010,6 14 24 0,0
17.02.2020 15:00:00 9,1 6,3 - - 28 15 46 25 SW 1009,8 16 6 0,2
17.02.2020 14:00:00 9,5 5,1 - - 29 16 63 34 SW 1009,4 16 36 0,0
17.02.2020 13:00:00 9,6 4,4 - - 44 24 65 35 SW 1009,5 29 54 0,0
17.02.2020 12:00:00 9,6 5,0 - - 39 21 59 32 SW 1009,0 12 60 0,0
17.02.2020 11:00:00 8,1 3,8 - - 35 19 52 28 SW 1009,3 19 42 0,0
17.02.2020 10:00:00 6,8 3,1 - - 39 21 54 29 SW 1009,1 35 18 0,0
17.02.2020 09:00:00 5,8 3,1 7,4 7,7 34 18 68 37 WSW 1008,9 7 18 1,6
17.02.2020 08:00:00 7,8 4,1 - - 34 18 50 27 SW 1007,9 12 0 0,0
17.02.2020 07:00:00 7,3 4,0 - - 35 19 52 28 SSW 1007,6 9 0 0,0
17.02.2020 06:00:00 7,2 3,1 - - 34 18 46 25 SSW 1007,6 10 0 0,0
17.02.2020 05:00:00 7,2 2,3 - - 34 18 - - SW 1008,1 12 0 0,0
17.02.2020 04:00:00 6,2 2,4 - - 24 13 - - SW 1008,1 9 0 0,0

tt = Température de l'air
td = dewpoint
tt -20cm = Température de l'air -20cm
tt -100cm = Température de l'air -100cm
ff = Vitesse du vent
fx = gusts
dd = Direction du vent
ppp = reduced air pressure
vv = visibility
sd = Ensoleillement
rr = Quantités de précipitations

stations d'obs. à proximité